Location: Newark
(31.5350°N, 35.0986°E)
Time: 14:42:40
(UTC+00:00)

Courier 1B - Visible Passes

Search period start: 20 September 2019 00:00
Search period end: 30 September 2019 00:00
Orbit: 962 x 1209 km, 28.3° (Epoch: 19 September)

Date Brightness Start Highest point End Pass type
(mag) Time Alt. Az. Time Alt. Az. Time Alt. Az.
20 Sep 9.6 01:00:52 12° SSE 01:02:08 13° SSE 01:05:03 10° ESE visible
20 Sep 8.7 02:49:18 10° SW 02:55:26 38° SSE 03:01:54 10° E visible
21 Sep 8.9 01:57:38 16° SSW 02:01:47 30° SSE 02:07:41 10° E visible
22 Sep 9.0 01:07:26 22° SSE 01:08:13 23° SSE 01:13:18 10° ESE visible
22 Sep 8.2 02:55:16 10° WSW 03:01:42 51° SSE 03:08:32 10° E visible
23 Sep 9.8 00:17:13 13° SE 00:17:13 13° SE 00:18:38 10° ESE visible
23 Sep 8.3 02:04:07 22° SW 02:08:01 43° SSE 02:14:29 10° E visible
24 Sep 8.4 01:13:51 34° SSE 01:14:23 35° SSE 01:20:24 10° E visible
24 Sep 7.9 03:01:32 10° WSW 03:08:04 63° S 03:15:00 10° E visible
25 Sep 9.4 00:23:34 20° ESE 00:23:34 20° ESE 00:26:14 10° E visible
25 Sep 7.9 02:10:28 24° WSW 02:14:20 56° SSE 02:21:02 10° E visible
26 Sep 7.9 01:20:09 47° S 01:20:40 48° SSE 01:27:05 10° E visible
27 Sep 9.1 00:29:50 27° ESE 00:29:50 27° ESE 00:33:08 10° E visible
27 Sep 7.7 02:16:44 24° WSW 02:20:45 66° S 02:27:30 10° E visible
28 Sep 7.5 01:26:23 58° SSW 01:27:03 61° S 01:33:37 10° E visible
29 Sep 8.8 00:36:03 33° ESE 00:36:03 33° ESE 00:39:45 10° E visible
29 Sep 7.6 02:22:56 22° W 02:27:13 68° S 02:33:56 10° E visible
29 Sep 10.1 23:45:42 11° E 23:45:42 11° E 23:45:55 10° E visible
